Precipitable_Water
1.28 1.26 1.28 1.26 1.24 1.21 1.23 1.27 1.25 1.24 1.28 1.36 1.34 1.32 1.28 1.26 1.28 1.31 1.35 1.36 1.34 1.31 1.31 1.35 1.38 1.42 1.42 1.35 1.30 1.42 1.35 1.30 1.28 1.24 1.23 1.21 1.22 1.21 1.21 1.20 1.17 1.17 1.17 1.16 1.16 1.13 1.10 1.09 1.10 1.13 1.16 1.12 1.11 1.11 1.10 1.11 1.12 1.10 1.11 1.07 1.03 1.04 1.01 0.96 0.85 0.78 0.79 0.82 0.78 0.77 0.78 0.75 0.69 0.68 0.62 0.56 0.54 0.53 0.48 0.44 0.41 0.37 0.36 0.39 0.41
1.24 1.26 1.30 1.29 1.22 1.21 1.23 1.24 1.22 1.22 1.26 1.30 1.30 1.31 1.29 1.27 1.33 1.34 1.31 1.33 1.33 1.29 1.30 1.34 1.44 1.39 1.41 1.34 1.32 1.35 1.32 1.28 1.26 1.24 1.20 1.18 1.18 1.20 1.18 1.17 1.16 1.16 1.16 1.12 1.13 1.13 1.13 1.11 1.12 1.14 1.16 1.11 1.11 1.09 1.09 1.09 1.07 1.06 1.07 1.05 1.03 1.03 1.07 0.99 0.88 0.78 0.72 0.75 0.74 0.79 0.78 0.79 0.69 0.70 0.62 0.55 0.52 0.52 0.46 0.44 0.43 0.40 0.38 0.41 0.43
1.17 1.21 1.23 1.24 1.24 1.22 1.22 1.24 1.28 1.30 1.30 1.29 1.30 1.32 1.32 1.31 1.37 1.32 1.30 1.30 1.32 1.25 1.28 1.41 1.41 1.40 1.39 1.35 1.33 1.31 1.29 1.25 1.23 1.21 1.19 1.17 1.15 1.16 1.16 1.16 1.15 1.13 1.11 1.11 1.13 1.14 1.12 1.10 1.09 1.12 1.14 1.09 1.08 1.08 1.10 1.08 1.09 1.06 1.06 1.08 1.05 1.06 1.08 1.04 0.91 0.80 0.75 0.72 0.75 0.74 0.74 0.74 0.69 0.64 0.63 0.59 0.54 0.52 0.46 0.43 0.42 0.42 0.41 0.42 0.43
1.15 1.16 1.17 1.21 1.26 1.28 1.26 1.27 1.29 1.29 1.27 1.29 1.30 1.31 1.31 1.30 1.34 1.35 1.32 1.31 1.28 1.26 1.31 1.39 1.37 1.37 1.38 1.37 1.30 1.25 1.22 1.19 1.19 1.21 1.20 1.19 1.16 1.14 1.16 1.16 1.17 1.16 1.13 1.13 1.13 1.12 1.09 1.07 1.07 1.09 1.09 1.05 1.06 1.07 1.08 1.09 1.07 1.08 1.08 1.12 1.15 1.14 1.10 1.04 0.98 0.91 0.85 0.75 0.75 0.72 0.73 0.71 0.70 0.67 0.66 0.61 0.53 0.49 0.46 0.44 0.45 0.41 0.41 0.41 0.43
1.10 1.15 1.16 1.15 1.19 1.25 1.28 1.29 1.25 1.24 1.23 1.27 1.29 1.31 1.28 1.29 1.33 1.33 1.32 1.30 1.31 1.30 1.30 1.37 1.37 1.31 1.35 1.29 1.23 1.18 1.16 1.13 1.14 1.18 1.22 1.21 1.18 1.17 1.17 1.18 1.18 1.17 1.15 1.15 1.16 1.15 1.13 1.10 1.10 1.10 1.09 1.04 1.05 1.04 1.05 1.04 1.08 1.09 1.11 1.17 1.18 1.19 1.14 1.06 0.99 0.97 0.90 0.80 0.77 0.77 0.75 0.73 0.71 0.68 0.65 0.58 0.53 0.49 0.46 0.43 0.42 0.41 0.41 0.42 0.43
1.02 1.06 1.12 1.14 1.17 1.19 1.22 1.25 1.25 1.26 1.26 1.33 1.29 1.30 1.31 1.31 1.31 1.32 1.32 1.29 1.31 1.32 1.30 1.34 1.32 1.30 1.33 1.24 1.15 1.12 1.12 1.14 1.15 1.15 1.17 1.18 1.17 1.18 1.19 1.19 1.19 1.17 1.16 1.16 1.17 1.16 1.14 1.12 1.12 1.13 1.10 1.04 1.02 1.04 1.06 1.06 1.08 1.07 1.11 1.12 1.12 1.15 1.14 1.10 1.05 1.00 0.95 0.91 0.85 0.80 0.77 0.71 0.70 0.67 0.63 0.59 0.54 0.47 0.43 0.42 0.43 0.43 0.42 0.42 0.45
0.96 1.00 1.05 1.09 1.13 1.17 1.19 1.19 1.18 1.18 1.21 1.26 1.33 1.32 1.33 1.34 1.33 1.32 1.35 1.33 1.32 1.35 1.35 1.33 1.29 1.34 1.25 1.14 1.10 1.12 1.15 1.16 1.12 1.11 1.11 1.10 1.11 1.10 1.12 1.14 1.14 1.11 1.10 1.10 1.12 1.12 1.10 1.08 1.09 1.12 1.10 1.09 1.08 1.06 1.07 1.06 1.04 1.01 1.03 1.06 1.11 1.11 1.11 1.11 1.06 1.02 0.97 0.90 0.85 0.81 0.76 0.74 0.69 0.63 0.62 0.59 0.56 0.53 0.45 0.42 0.38 0.40 0.44 0.46 0.48
0.93 0.98 1.03 1.06 1.10 1.15 1.19 1.20 1.16 1.15 1.16 1.20 1.24 1.31 1.35 1.38 1.39 1.38 1.34 1.32 1.33 1.30 1.30 1.25 1.28 1.28 1.16 1.14 1.15 1.16 1.14 1.10 1.07 1.05 1.05 1.04 1.02 1.02 1.03 1.03 1.01 1.00 1.00 1.01 1.02 1.02 1.02 1.01 1.00 1.04 1.09 1.11 1.09 1.10 1.09 1.05 1.05 1.01 1.07 1.10 1.12 1.12 1.11 1.12 1.07 1.02 0.93 0.85 0.81 0.78 0.76 0.71 0.68 0.68 0.65 0.59 0.52 0.52 0.50 0.44 0.37 0.39 0.45 0.52 0.56
0.91 0.98 1.04 1.06 1.10 1.14 1.15 1.15 1.15 1.15 1.17 1.19 1.22 1.26 1.33 1.35 1.37 1.38 1.35 1.32 1.32 1.33 1.29 1.22 1.22 1.18 1.17 1.16 1.11 1.10 1.07 1.04 1.02 1.00 0.99 0.98 0.97 0.95 0.96 0.96 0.95 0.93 0.93 0.92 0.93 0.94 0.96 0.96 0.96 0.98 1.07 1.11 1.12 1.13 1.14 1.18 1.14 1.06 1.06 1.12 1.08 1.06 1.07 1.07 1.05 0.98 0.88 0.82 0.79 0.79 0.74 0.69 0.68 0.65 0.61 0.56 0.47 0.44 0.49 0.49 0.46 0.50 0.53 0.54 0.58
0.92 0.96 1.02 1.07 1.12 1.14 1.14 1.12 1.10 1.12 1.15 1.17 1.22 1.27 1.31 1.34 1.35 1.35 1.32 1.32 1.28 1.30 1.22 1.17 1.18 1.15 1.10 1.06 1.06 1.04 1.02 1.01 0.99 0.98 0.98 0.96 0.94 0.93 0.94 0.93 0.92 0.91 0.88 0.86 0.87 0.87 0.88 0.90 0.92 0.95 1.00 1.06 1.10 1.12 1.15 1.17 1.21 1.16 1.07 1.16 1.11 1.08 1.06 1.03 1.05 1.01 0.95 0.87 0.79 0.75 0.71 0.69 0.67 0.67 0.64 0.59 0.54 0.52 0.51 0.52 0.51 0.57 0.61 0.60 0.62
0.89 0.94 0.98 1.06 1.12 1.14 1.11 1.10 1.10 1.11 1.16 1.21 1.25 1.29 1.31 1.35 1.35 1.34 1.30 1.25 1.24 1.24 1.15 1.23 1.16 1.13 1.07 1.03 1.02 1.00 1.00 0.99 0.99 1.00 1.01 1.01 0.99 0.95 0.94 0.93 0.93 0.91 0.89 0.87 0.84 0.84 0.84 0.86 0.89 0.92 0.95 0.99 1.03 1.09 1.14 1.19 1.19 1.17 1.15 1.14 1.13 1.11 1.04 1.02 1.03 1.03 0.96 0.88 0.84 0.79 0.72 0.68 0.69 0.70 0.68 0.67 0.64 0.61 0.59 0.60 0.59 0.60 0.59 0.58 0.56
0.87 0.90 0.96 1.03 1.08 1.11 1.12 1.12 1.13 1.16 1.20 1.21 1.23 1.31 1.34 1.35 1.33 1.30 1.25 1.20 1.22 1.21 1.22 1.17 1.12 1.09 1.03 1.03 1.03 1.02 1.03 1.04 1.03 1.03 1.03 1.02 1.02 0.99 0.97 0.97 0.98 0.99 0.98 0.95 0.91 0.88 0.86 0.86 0.88 0.92 0.96 0.98 1.01 1.05 1.10 1.13 1.13 1.14 1.14 1.12 1.11 1.12 1.11 1.05 1.00 0.93 0.88 0.83 0.80 0.77 0.73 0.69 0.70 0.70 0.69 0.69 0.68 0.66 0.65 0.63 0.62 0.61 0.61 0.61 0.62
0.87 0.90 0.95 1.00 1.06 1.11 1.14 1.14 1.13 1.15 1.18 1.22 1.26 1.30 1.31 1.32 1.27 1.22 1.20 1.17 1.16 1.16 1.16 1.13 1.08 1.04 1.03 1.01 1.03 1.03 1.02 1.03 1.02 1.01 1.00 1.00 1.00 0.99 0.98 0.99 1.00 0.99 1.00 1.00 0.97 0.93 0.90 0.87 0.86 0.89 0.92 0.96 0.99 1.02 1.05 1.06 1.08 1.08 1.07 1.05 1.03 1.03 1.02 1.00 0.99 0.95 0.92 0.85 0.80 0.77 0.74 0.71 0.67 0.68 0.70 0.70 0.72 0.67 0.68 0.66 0.66 0.66 0.67 0.66 0.67
0.87 0.90 0.94 0.99 1.06 1.12 1.15 1.16 1.16 1.17 1.21 1.24 1.28 1.25 1.26 1.27 1.20 1.20 1.17 1.14 1.14 1.12 1.07 1.06 1.02 1.01 1.01 1.00 1.00 1.01 1.00 1.01 1.01 1.00 0.97 0.95 0.96 0.98 0.98 0.98 1.00 1.00 1.00 1.01 1.00 0.97 0.94 0.91 0.87 0.87 0.92 0.94 0.97 0.99 1.00 1.01 1.04 1.03 1.01 1.00 0.99 0.98 0.98 0.99 0.99 0.97 0.94 0.89 0.84 0.79 0.84 0.85 0.79 0.81 0.86 0.88 0.82 0.78 0.77 0.75 0.78 0.77 0.77 0.77 0.81
0.86 0.90 0.92 0.95 1.01 1.09 1.12 1.14 1.17 1.18 1.19 1.22 1.27 1.24 1.24 1.21 1.16 1.16 1.17 1.13 1.09 1.08 1.03 0.98 0.98 0.96 0.98 1.00 0.99 0.98 0.99 1.00 1.01 1.00 0.97 0.94 0.93 0.94 0.96 0.97 0.98 0.98 1.00 1.01 1.00 0.98 0.96 0.93 0.90 0.88 0.92 0.93 0.96 0.99 0.99 1.00 1.00 1.00 0.99 0.98 0.97 0.97 0.97 0.96 0.96 0.96 0.95 0.94 0.92 0.92 0.92 0.93 0.92 0.91 0.90 0.91 0.89 0.89 0.89 0.87 0.87 0.87 0.87 0.89 0.87
0.84 0.87 0.89 0.93 1.00 1.08 1.15 1.18 1.19 1.20 1.19 1.21 1.23 1.22 1.20 1.18 1.13 1.10 1.10 1.07 1.05 1.02 0.96 0.95 0.95 0.95 0.95 0.97 0.97 0.95 0.97 0.99 0.99 0.97 0.93 0.89 0.88 0.88 0.90 0.91 0.92 0.94 0.97 0.98 0.97 0.96 0.94 0.91 0.87 0.85 0.88 0.96 0.99 1.00 1.01 1.02 1.01 1.00 0.99 0.98 1.01 1.02 1.00 1.01 1.00 0.99 0.98 0.97 0.97 0.96 0.96 0.97 0.96 0.95 0.96 0.95 0.94 0.95 0.95 0.94 0.93 0.90 0.85 0.80 0.77
0.82 0.85 0.88 0.94 0.99 1.06 1.13 1.15 1.16 1.18 1.16 1.17 1.18 1.20 1.17 1.14 1.13 1.11 1.08 1.05 1.03 0.97 0.93 0.93 0.94 0.95 0.94 0.96 0.95 0.94 0.94 0.94 0.92 0.89 0.87 0.87 0.86 0.85 0.85 0.85 0.86 0.89 0.93 0.96 0.98 0.99 0.98 0.92 0.88 0.86 0.86 0.90 0.97 1.00 1.01 1.00 0.99 0.96 0.95 0.94 0.95 0.96 0.95 0.96 0.96 0.94 0.94 0.93 0.94 0.95 0.96 0.95 0.94 0.94 0.94 0.95 0.94 0.95 0.93 0.87 0.83 0.86 0.79 0.74 0.76
0.82 0.85 0.87 0.93 0.99 1.04 1.11 1.14 1.15 1.15 1.14 1.11 1.14 1.14 1.14 1.13 1.09 1.08 1.06 1.03 0.99 0.97 0.96 0.95 0.95 0.94 0.93 0.91 0.90 0.87 0.85 0.88 0.90 0.90 0.91 0.91 0.90 0.88 0.89 0.88 0.88 0.90 0.94 0.97 0.98 0.99 0.98 0.92 0.89 0.88 0.88 0.88 0.91 0.92 0.94 0.97 0.96 0.97 0.96 0.96 0.93 0.92 0.90 0.89 0.87 0.87 0.88 0.87 0.86 0.86 0.86 0.85 0.85 0.85 0.86 0.87 0.87 0.87 0.80 0.72 0.78 0.77 0.71 0.71 0.67
0.79 0.83 0.88 0.92 1.00 1.07 1.12 1.14 1.14 1.13 1.10 1.10 1.12 1.11 1.09 1.06 1.06 1.07 1.06 1.03 1.00 0.99 0.97 0.96 0.95 0.95 0.94 0.94 0.93 0.90 0.89 0.90 0.90 0.89 0.90 0.92 0.92 0.94 0.95 0.94 0.93 0.92 0.92 0.92 0.94 0.95 0.94 0.91 0.89 0.89 0.89 0.89 0.86 0.85 0.83 0.83 0.83 0.85 0.88 0.88 0.87 0.82 0.80 0.80 0.79 0.80 0.81 0.81 0.81 0.81 0.80 0.81 0.81 0.81 0.82 0.82 0.82 0.82 0.82 0.79 0.80 0.75 0.69 0.69 0.68
0.77 0.82 0.87 0.93 0.98 1.04 1.10 1.12 1.13 1.13 1.11 1.10 1.08 1.06 1.07 1.06 1.07 1.04 1.03 1.01 0.99 0.99 0.97 0.96 0.94 0.93 0.94 0.95 0.95 0.94 0.93 0.93 0.94 0.93 0.91 0.92 0.94 0.99 1.02 1.00 0.96 0.94 0.92 0.90 0.87 0.88 0.88 0.88 0.87 0.85 0.85 0.85 0.84 0.84 0.84 0.83 0.81 0.81 0.80 0.77 0.75 0.75 0.79 0.83 0.84 0.84 0.83 0.82 0.82 0.82 0.81 0.81 0.80 0.79 0.77 0.76 0.76 0.76 0.75 0.75 0.75 0.74 0.70 0.69 0.69
0.76 0.79 0.83 0.89 0.95 0.98 1.03 1.05 1.08 1.09 1.10 1.09 1.09 1.06 1.04 1.03 1.01 1.00 1.00 0.98 0.97 0.96 0.96 0.95 0.93 0.92 0.92 0.93 0.94 0.95 0.96 0.95 0.97 0.99 0.98 0.97 0.98 0.98 0.98 0.98 0.98 0.95 0.92 0.90 0.89 0.86 0.85 0.85 0.87 0.86 0.85 0.84 0.84 0.85 0.85 0.86 0.86 0.85 0.83 0.81 0.81 0.83 0.84 0.81 0.81 0.79 0.77 0.75 0.74 0.74 0.74 0.74 0.74 0.74 0.74 0.74 0.74 0.75 0.76 0.77 0.77 0.78 0.75 0.69 0.66
0.74 0.75 0.78 0.83 0.87 0.91 0.95 1.00 1.03 1.05 1.07 1.06 1.05 1.03 1.04 1.04 1.02 1.00 0.99 0.97 0.94 0.95 0.95 0.94 0.92 0.91 0.90 0.91 0.91 0.92 0.94 0.95 0.97 1.01 1.03 1.03 1.01 0.99 0.97 0.96 0.96 0.93 0.89 0.88 0.86 0.83 0.83 0.85 0.85 0.84 0.84 0.84 0.84 0.83 0.82 0.81 0.80 0.80 0.79 0.79 0.79 0.80 0.78 0.79 0.79 0.77 0.75 0.73 0.71 0.69 0.69 0.70 0.70 0.71 0.71 0.72 0.71 0.70 0.69 0.68 0.66 0.64 0.63 0.61 0.56
0.71 0.70 0.72 0.77 0.82 0.85 0.89 0.93 0.96 0.99 1.01 1.03 1.01 1.00 1.01 1.01 1.00 0.99 0.97 0.95 0.93 0.93 0.93 0.93 0.92 0.90 0.89 0.89 0.89 0.88 0.90 0.92 0.94 0.96 0.97 0.97 0.97 0.96 0.95 0.92 0.91 0.90 0.85 0.81 0.80 0.81 0.84 0.85 0.84 0.83 0.81 0.81 0.80 0.81 0.82 0.82 0.81 0.80 0.79 0.78 0.77 0.76 0.75 0.74 0.73 0.72 0.71 0.70 0.68 0.65 0.64 0.63 0.61 0.60 0.59 0.58 0.59 0.59 0.58 0.57 0.56 0.55 0.55 0.54 0.54
0.70 0.69 0.69 0.71 0.75 0.79 0.83 0.87 0.92 0.95 0.96 0.97 0.99 0.98 0.95 0.95 0.96 0.96 0.95 0.92 0.90 0.90 0.91 0.91 0.89 0.87 0.85 0.84 0.85 0.86 0.86 0.87 0.88 0.88 0.86 0.86 0.87 0.87 0.85 0.84 0.82 0.80 0.78 0.78 0.80 0.81 0.81 0.80 0.80 0.79 0.78 0.77 0.76 0.74 0.73 0.73 0.72 0.72 0.72 0.72 0.72 0.73 0.72 0.70 0.68 0.66 0.63 0.61 0.58 0.56 0.56 0.57 0.56 0.54 0.53 0.52 0.50 0.49 0.48 0.47 0.46 0.46 0.46 0.46 0.46
0.68 0.68 0.68 0.68 0.69 0.73 0.78 0.82 0.86 0.90 0.92 0.93 0.93 0.93 0.94 0.93 0.91 0.93 0.91 0.89 0.87 0.86 0.86 0.87 0.86 0.85 0.83 0.82 0.82 0.83 0.83 0.83 0.82 0.81 0.78 0.78 0.78 0.78 0.78 0.77 0.77 0.76 0.75 0.76 0.77 0.77 0.76 0.76 0.75 0.74 0.74 0.73 0.72 0.71 0.70 0.69 0.69 0.69 0.69 0.69 0.68 0.66 0.64 0.61 0.59 0.57 0.54 0.52 0.51 0.50 0.48 0.47 0.46 0.46 0.47 0.46 0.45 0.44 0.41 0.40 0.40 0.39 0.39 0.39 0.40
0.65 0.67 0.69 0.68 0.68 0.69 0.71 0.75 0.81 0.84 0.86 0.90 0.91 0.92 0.92 0.92 0.90 0.90 0.90 0.89 0.88 0.87 0.85 0.85 0.84 0.83 0.82 0.82 0.81 0.81 0.81 0.80 0.79 0.78 0.77 0.75 0.74 0.74 0.73 0.74 0.74 0.75 0.75 0.77 0.78 0.77 0.76 0.74 0.72 0.71 0.69 0.68 0.67 0.65 0.64 0.63 0.63 0.62 0.61 0.60 0.59 0.58 0.56 0.54 0.51 0.47 0.44 0.43 0.43 0.41 0.42 0.43 0.43 0.43 0.43 0.41 0.37 0.35 0.34 0.33 0.32 0.33 0.34 0.33 0.32
0.66 0.66 0.67 0.69 0.69 0.69 0.69 0.69 0.73 0.78 0.82 0.84 0.85 0.87 0.89 0.91 0.90 0.89 0.88 0.88 0.87 0.86 0.85 0.85 0.84 0.82 0.81 0.81 0.81 0.80 0.77 0.76 0.76 0.77 0.77 0.76 0.73 0.73 0.72 0.72 0.72 0.72 0.71 0.71 0.70 0.69 0.68 0.67 0.66 0.65 0.63 0.62 0.60 0.59 0.58 0.57 0.55 0.54 0.52 0.51 0.50 0.49 0.48 0.47 0.45 0.44 0.43 0.41 0.40 0.40 0.39 0.39 0.39 0.37 0.34 0.33 0.32 0.33 0.33 0.32 0.30 0.30 0.32 0.33 0.32
0.68 0.68 0.68 0.69 0.69 0.69 0.68 0.69 0.69 0.71 0.74 0.77 0.80 0.82 0.84 0.86 0.85 0.85 0.85 0.86 0.85 0.83 0.83 0.83 0.82 0.81 0.80 0.81 0.80 0.77 0.75 0.75 0.74 0.74 0.75 0.75 0.74 0.71 0.69 0.68 0.66 0.65 0.64 0.65 0.65 0.64 0.62 0.60 0.59 0.58 0.56 0.54 0.52 0.51 0.50 0.49 0.49 0.48 0.48 0.48 0.48 0.48 0.47 0.46 0.45 0.43 0.41 0.39 0.37 0.36 0.35 0.34 0.32 0.32 0.32 0.31 0.31 0.31 0.32 0.31 0.30 0.30 0.32 0.32 0.29
0.69 0.69 0.70 0.70 0.70 0.70 0.69 0.69 0.69 0.69 0.70 0.73 0.76 0.77 0.79 0.81 0.83 0.85 0.87 0.88 0.86 0.84 0.82 0.81 0.80 0.79 0.78 0.76 0.75 0.74 0.75 0.71 0.69 0.69 0.67 0.65 0.63 0.60 0.60 0.60 0.61 0.61 0.61 0.59 0.56 0.55 0.53 0.50 0.48 0.47 0.46 0.45 0.45 0.45 0.45 0.45 0.45 0.46 0.45 0.45 0.45 0.44 0.42 0.40 0.37 0.35 0.35 0.34 0.32 0.31 0.31 0.31 0.31 0.31 0.30 0.29 0.30 0.30 0.32 0.31 0.32 0.31 0.32 0.32 0.29
0.65 0.66 0.68 0.69 0.69 0.70 0.70 0.69 0.70 0.70 0.69 0.69 0.70 0.74 0.79 0.80 0.80 0.80 0.80 0.83 0.84 0.84 0.82 0.79 0.79 0.78 0.75 0.75 0.74 0.70 0.69 0.72 0.75 0.72 0.69 0.68 0.68 0.67 0.66 0.64 0.61 0.58 0.56 0.55 0.53 0.49 0.47 0.46 0.46 0.45 0.45 0.45 0.44 0.44 0.44 0.44 0.43 0.42 0.42 0.41 0.40 0.38 0.37 0.36 0.35 0.34 0.34 0.32 0.32 0.31 0.30 0.30 0.29 0.29 0.28 0.28 0.29 0.30 0.32 0.31 0.30 0.32 0.30 0.29 0.29
0.63 0.63 0.64 0.65 0.68 0.69 0.70 0.70 0.70 0.70 0.70 0.70 0.70 0.69 0.70 0.74 0.77 0.77 0.77 0.77 0.79 0.79 0.78 0.78 0.77 0.77 0.75 0.72 0.73 0.74 0.74 0.74 0.74 0.72 0.70 0.68 0.66 0.63 0.60 0.58 0.56 0.55 0.55 0.52 0.50 0.48 0.47 0.46 0.47 0.47 0.46 0.46 0.44 0.43 0.42 0.40 0.39 0.38 0.37 0.37 0.37 0.36 0.35 0.33 0.33 0.33 0.32 0.31 0.30 0.30 0.30 0.29 0.28 0.28 0.28 0.28 0.28 0.30 0.31 0.32 0.32 0.32 0.31 0.31 0.30
0.58 0.60 0.62 0.63 0.65 0.66 0.68 0.70 0.70 0.69 0.68 0.69 0.68 0.68 0.68 0.68 0.70 0.75 0.76 0.75 0.74 0.74 0.74 0.74 0.74 0.73 0.73 0.72 0.71 0.71 0.73 0.73 0.73 0.71 0.69 0.67 0.65 0.63 0.61 0.59 0.58 0.57 0.56 0.55 0.50 0.49 0.48 0.46 0.45 0.44 0.43 0.40 0.39 0.39 0.38 0.37 0.36 0.35 0.34 0.33 0.32 0.33 0.32 0.31 0.33 0.32 0.31 0.30 0.30 0.29 0.29 0.29 0.29 0.29 0.29 0.29 0.29 0.29 0.30 0.30 0.31 0.31 0.31 0.32 0.32
0.55 0.57 0.58 0.60 0.61 0.63 0.65 0.66 0.68 0.68 0.66 0.66 0.65 0.66 0.65 0.65 0.65 0.66 0.71 0.74 0.74 0.73 0.73 0.74 0.74 0.74 0.72 0.70 0.69 0.67 0.68 0.69 0.70 0.69 0.67 0.66 0.64 0.63 0.62 0.61 0.60 0.59 0.57 0.52 0.48 0.47 0.46 0.44 0.42 0.40 0.39 0.37 0.37 0.36 0.36 0.35 0.34 0.33 0.33 0.31 0.31 0.32 0.32 0.33 0.34 0.32 0.31 0.31 0.31 0.30 0.30 0.30 0.30 0.30 0.30 0.30 0.30 0.29 0.30 0.30 0.31 0.32 0.33 0.32 0.33
0.52 0.54 0.55 0.55 0.56 0.57 0.59 0.61 0.63 0.64 0.66 0.66 0.64 0.64 0.64 0.64 0.64 0.64 0.63 0.64 0.66 0.69 0.70 0.70 0.69 0.69 0.69 0.68 0.66 0.65 0.64 0.63 0.63 0.63 0.63 0.62 0.61 0.60 0.58 0.57 0.56 0.54 0.51 0.46 0.44 0.42 0.41 0.40 0.39 0.38 0.38 0.37 0.37 0.36 0.35 0.34 0.34 0.33 0.32 0.32 0.32 0.32 0.32 0.33 0.32 0.31 0.31 0.31 0.30 0.30 0.31 0.31 0.31 0.30 0.29 0.30 0.30 0.31 0.30 0.31 0.32 0.31 0.32 0.33 0.33
0.48 0.50 0.52 0.53 0.53 0.53 0.54 0.56 0.58 0.60 0.61 0.63 0.64 0.63 0.63 0.64 0.64 0.63 0.63 0.62 0.62 0.61 0.62 0.64 0.65 0.65 0.63 0.63 0.63 0.63 0.63 0.62 0.60 0.59 0.59 0.58 0.57 0.57 0.55 0.52 0.48 0.48 0.47 0.46 0.43 0.41 0.39 0.38 0.37 0.37 0.37 0.36 0.36 0.36 0.34 0.34 0.33 0.32 0.31 0.31 0.31 0.31 0.31 0.31 0.30 0.31 0.30 0.30 0.30 0.30 0.30 0.30 0.30 0.30 0.30 0.29 0.29 0.29 0.30 0.31 0.32 0.33 0.33 0.33 0.34
0.47 0.48 0.49 0.50 0.50 0.50 0.51 0.53 0.53 0.54 0.55 0.57 0.61 0.61 0.62 0.62 0.62 0.62 0.62 0.62 0.61 0.60 0.61 0.62 0.62 0.62 0.62 0.61 0.61 0.61 0.61 0.61 0.60 0.59 0.57 0.57 0.56 0.55 0.49 0.47 0.46 0.45 0.43 0.43 0.41 0.40 0.39 0.38 0.37 0.36 0.36 0.36 0.36 0.35 0.35 0.34 0.33 0.33 0.33 0.31 0.30 0.30 0.30 0.30 0.30 0.30 0.31 0.31 0.30 0.30 0.30 0.30 0.31 0.30 0.30 0.30 0.30 0.30 0.30 0.31 0.31 0.33 0.33 0.34 0.35
0.45 0.46 0.48 0.48 0.48 0.48 0.49 0.50 0.51 0.51 0.52 0.54 0.56 0.58 0.59 0.60 0.61 0.61 0.59 0.58 0.58 0.59 0.59 0.59 0.60 0.60 0.61 0.60 0.59 0.58 0.58 0.58 0.57 0.57 0.56 0.55 0.54 0.52 0.48 0.46 0.44 0.43 0.41 0.40 0.40 0.39 0.38 0.38 0.37 0.36 0.36 0.35 0.35 0.35 0.35 0.34 0.34 0.33 0.32 0.32 0.31 0.30 0.30 0.30 0.30 0.30 0.30 0.30 0.30 0.30 0.30 0.30 0.31 0.31 0.30 0.29 0.30 0.30 0.31 0.31 0.32 0.33 0.33 0.34 0.34
0.42 0.43 0.45 0.47 0.47 0.47 0.48 0.48 0.49 0.49 0.49 0.50 0.52 0.54 0.55 0.56 0.57 0.58 0.57 0.56 0.57 0.56 0.55 0.56 0.56 0.55 0.54 0.54 0.58 0.57 0.55 0.55 0.54 0.52 0.51 0.51 0.49 0.48 0.47 0.45 0.44 0.41 0.39 0.40 0.39 0.38 0.37 0.38 0.38 0.36 0.36 0.36 0.35 0.35 0.34 0.34 0.34 0.33 0.32 0.31 0.31 0.31 0.31 0.31 0.31 0.31 0.30 0.30 0.30 0.30 0.30 0.30 0.30 0.30 0.30 0.29 0.29 0.30 0.30 0.31 0.31 0.31 0.33 0.34 0.34
0.40 0.41 0.41 0.42 0.43 0.44 0.44 0.45 0.47 0.48 0.48 0.49 0.50 0.51 0.51 0.52 0.53 0.53 0.54 0.55 0.55 0.54 0.53 0.53 0.52 0.51 0.52 0.54 0.53 0.53 0.50 0.47 0.45 0.43 0.43 0.44 0.45 0.45 0.44 0.42 0.41 0.40 0.39 0.39 0.39 0.38 0.38 0.37 0.37 0.37 0.36 0.35 0.35 0.34 0.34 0.33 0.34 0.33 0.32 0.31 0.31 0.31 0.31 0.31 0.30 0.30 0.30 0.29 0.30 0.30 0.30 0.30 0.30 0.30 0.30 0.30 0.29 0.30 0.30 0.31 0.32 0.32 0.32 0.32 0.34
0.38 0.38 0.39 0.39 0.39 0.40 0.41 0.43 0.44 0.44 0.45 0.45 0.45 0.47 0.48 0.49 0.49 0.50 0.50 0.50 0.49 0.49 0.50 0.50 0.49 0.50 0.52 0.53 0.51 0.50 0.44 0.43 0.41 0.40 0.40 0.40 0.40 0.41 0.41 0.40 0.39 0.39 0.38 0.38 0.38 0.38 0.37 0.36 0.36 0.36 0.35 0.35 0.35 0.34 0.34 0.33 0.33 0.33 0.33 0.31 0.31 0.31 0.31 0.31 0.30 0.30 0.29 0.29 0.29 0.29 0.29 0.30 0.30 0.30 0.30 0.30 0.30 0.30 0.30 0.30 0.31 0.32 0.32 0.33 0.34
0.38 0.37 0.38 0.38 0.38 0.38 0.38 0.40 0.41 0.41 0.41 0.41 0.41 0.42 0.43 0.44 0.45 0.47 0.46 0.46 0.45 0.45 0.46 0.47 0.48 0.51 0.51 0.50 0.50 0.48 0.44 0.41 0.40 0.40 0.40 0.39 0.39 0.39 0.39 0.39 0.39 0.39 0.39 0.39 0.39 0.38 0.37 0.36 0.36 0.35 0.35 0.35 0.35 0.35 0.34 0.34 0.33 0.33 0.32 0.32 0.32 0.31 0.31 0.31 0.31 0.30 0.30 0.29 0.29 0.29 0.30 0.30 0.30 0.29 0.28 0.29 0.30 0.30 0.30 0.30 0.31 0.31 0.32 0.33 0.34
0.39 0.38 0.38 0.37 0.37 0.38 0.37 0.38 0.38 0.39 0.39 0.38 0.38 0.38 0.39 0.41 0.42 0.43 0.42 0.42 0.42 0.43 0.44 0.45 0.46 0.47 0.48 0.47 0.46 0.45 0.43 0.41 0.41 0.40 0.41 0.40 0.40 0.40 0.40 0.40 0.41 0.41 0.40 0.39 0.38 0.37 0.36 0.36 0.35 0.35 0.34 0.34 0.34 0.34 0.34 0.33 0.33 0.32 0.32 0.32 0.31 0.31 0.31 0.31 0.31 0.31 0.30 0.30 0.30 0.30 0.30 0.30 0.29 0.29 0.29 0.30 0.29 0.30 0.30 0.30 0.30 0.30 0.31 0.32 0.33
0.41 0.40 0.40 0.39 0.38 0.38 0.36 0.37 0.38 0.37 0.36 0.37 0.36 0.36 0.37 0.38 0.39 0.40 0.40 0.40 0.41 0.42 0.43 0.43 0.44 0.45 0.45 0.45 0.44 0.43 0.41 0.40 0.39 0.39 0.40 0.39 0.40 0.40 0.40 0.40 0.40 0.40 0.39 0.38 0.38 0.37 0.36 0.35 0.35 0.34 0.34 0.33 0.34 0.33 0.33 0.32 0.32 0.31 0.31 0.31 0.31 0.31 0.31 0.31 0.31 0.32 0.31 0.30 0.30 0.30 0.30 0.29 0.29 0.28 0.29 0.30 0.30 0.29 0.29 0.29 0.29 0.30 0.30 0.31 0.31
0.41 0.41 0.41 0.40 0.38 0.38 0.38 0.38 0.38 0.39 0.39 0.39 0.38 0.36 0.35 0.35 0.36 0.38 0.38 0.39 0.41 0.42 0.43 0.43 0.43 0.43 0.43 0.43 0.42 0.41 0.38 0.37 0.37 0.38 0.39 0.39 0.39 0.39 0.39 0.39 0.38 0.37 0.36 0.36 0.36 0.36 0.35 0.34 0.33 0.33 0.34 0.34 0.35 0.34 0.34 0.34 0.33 0.32 0.31 0.31 0.30 0.30 0.30 0.31 0.31 0.31 0.30 0.29 0.29 0.29 0.29 0.29 0.29 0.28 0.28 0.30 0.30 0.29 0.28 0.28 0.28 0.28 0.29 0.29 0.30
0.43 0.43 0.42 0.40 0.39 0.38 0.38 0.39 0.39 0.39 0.39 0.39 0.39 0.38 0.37 0.35 0.34 0.35 0.37 0.38 0.40 0.41 0.42 0.42 0.43 0.42 0.41 0.40 0.40 0.39 0.38 0.37 0.37 0.38 0.39 0.39 0.39 0.39 0.38 0.37 0.36 0.35 0.35 0.35 0.35 0.35 0.34 0.33 0.32 0.32 0.32 0.32 0.33 0.33 0.33 0.33 0.33 0.33 0.33 0.32 0.31 0.29 0.29 0.29 0.30 0.31 0.31 0.30 0.28 0.28 0.29 0.29 0.29 0.29 0.28 0.28 0.29 0.29 0.29 0.28 0.28 0.27 0.27 0.27 0.28
0.43 0.43 0.43 0.43 0.41 0.40 0.40 0.40 0.39 0.39 0.37 0.37 0.38 0.38 0.38 0.38 0.37 0.36 0.36 0.38 0.40 0.40 0.41 0.41 0.41 0.41 0.40 0.39 0.39 0.38 0.36 0.36 0.36 0.37 0.38 0.38 0.37 0.36 0.35 0.35 0.34 0.34 0.34 0.34 0.34 0.34 0.33 0.32 0.31 0.30 0.29 0.29 0.29 0.29 0.30 0.29 0.29 0.29 0.29 0.29 0.29 0.29 0.29 0.29 0.29 0.30 0.30 0.30 0.29 0.29 0.30 0.30 0.30 0.31 0.30 0.30 0.29 0.30 0.31 0.30 0.29 0.29 0.29 0.28 0.28
0.43 0.43 0.43 0.43 0.43 0.42 0.42 0.41 0.40 0.39 0.38 0.38 0.38 0.38 0.38 0.38 0.38 0.37 0.37 0.38 0.39 0.40 0.40 0.40 0.40 0.40 0.39 0.38 0.38 0.37 0.35 0.34 0.34 0.36 0.36 0.35 0.35 0.34 0.34 0.33 0.33 0.33 0.33 0.33 0.32 0.31 0.29 0.28 0.27 0.27 0.26 0.26 0.26 0.26 0.26 0.26 0.26 0.26 0.26 0.27 0.27 0.28 0.28 0.28 0.28 0.28 0.29 0.30 0.30 0.30 0.31 0.30 0.30 0.31 0.31 0.31 0.30 0.30 0.30 0.31 0.32 0.31 0.30 0.28 0.29
0.42 0.43 0.43 0.43 0.43 0.43 0.43 0.42 0.41 0.40 0.39 0.39 0.40 0.40 0.39 0.38 0.38 0.37 0.36 0.35 0.38 0.39 0.39 0.39 0.39 0.39 0.39 0.38 0.38 0.37 0.36 0.35 0.35 0.34 0.32 0.31 0.31 0.32 0.32 0.32 0.31 0.31 0.31 0.29 0.27 0.26 0.25 0.25 0.26 0.27 0.27 0.27 0.27 0.27 0.27 0.27 0.27 0.26 0.26 0.26 0.26 0.26 0.27 0.27 0.28 0.29 0.31 0.31 0.32 0.32 0.32 0.31 0.31 0.31 0.31 0.31 0.31 0.30 0.30 0.29 0.31 0.33 0.31 0.29 0.28
0.38 0.40 0.41 0.42 0.42 0.43 0.43 0.43 0.41 0.40 0.39 0.40 0.40 0.40 0.40 0.39 0.39 0.39 0.38 0.36 0.36 0.37 0.38 0.38 0.38 0.39 0.39 0.39 0.38 0.38 0.37 0.36 0.34 0.32 0.29 0.28 0.27 0.27 0.28 0.28 0.28 0.27 0.26 0.25 0.25 0.25 0.25 0.26 0.27 0.28 0.28 0.28 0.28 0.28 0.27 0.27 0.27 0.26 0.26 0.25 0.26 0.26 0.27 0.27 0.28 0.29 0.31 0.32 0.32 0.32 0.32 0.31 0.31 0.31 0.31 0.31 0.31 0.30 0.30 0.30 0.31 0.32 0.32 0.31 0.29
0.33 0.37 0.39 0.40 0.41 0.42 0.42 0.42 0.42 0.41 0.40 0.40 0.40 0.41 0.42 0.41 0.40 0.40 0.39 0.38 0.37 0.37 0.39 0.38 0.38 0.38 0.38 0.38 0.38 0.38 0.37 0.36 0.33 0.30 0.29 0.28 0.27 0.26 0.25 0.25 0.25 0.25 0.25 0.24 0.25 0.25 0.26 0.27 0.27 0.28 0.28 0.27 0.27 0.27 0.27 0.26 0.26 0.26 0.26 0.26 0.26 0.26 0.27 0.28 0.29 0.29 0.31 0.32 0.32 0.33 0.32 0.31 0.31 0.31 0.31 0.31 0.31 0.30 0.30 0.30 0.30 0.30 0.31 0.32 0.30
0.31 0.34 0.36 0.37 0.37 0.36 0.36 0.38 0.39 0.38 0.37 0.37 0.38 0.38 0.40 0.41 0.41 0.42 0.41 0.39 0.37 0.37 0.37 0.39 0.38 0.38 0.38 0.38 0.38 0.38 0.37 0.35 0.33 0.30 0.29 0.28 0.27 0.25 0.25 0.24 0.24 0.25 0.25 0.25 0.25 0.26 0.26 0.26 0.27 0.27 0.27 0.27 0.27 0.27 0.26 0.26 0.26 0.26 0.26 0.26 0.26 0.26 0.27 0.28 0.29 0.30 0.31 0.32 0.34 0.33 0.32 0.31 0.31 0.30 0.30 0.30 0.30 0.29 0.29 0.29 0.29 0.28 0.30 0.29 0.30
Wind_Speed
11 12 15 17 18 19 20 21 22 22 22 21 21 21 21 21 21 21 21 21 21 21 22 23 24 23 23 22 22 22 21 21 21 21 21 21 20 19 19 18 18 17 17 17 17 17 17 17 17 17 17 17 17 17 17 17 17 17 17 17 17 17 17 16 15 14 14 14 14 14 14 14 14 14 13 13 13 13 14 14 15 15 15 15 15
11 11 13 15 18 19 20 21 22 22 23 22 22 22 21 21 21 21 21 21 21 22 23 24 24 23 23 23 23 22 21 21 21 21 21 21 20 19 19 19 18 18 17 17 17 17 17 17 18 18 18 18 17 17 17 17 17 18 18 18 18 18 17 17 15 14 14 14 14 14 15 15 15 14 14 14 14 14 15 15 16 16 16 17 17
12 12 13 15 17 19 20 22 22 23 22 23 23 23 23 22 22 22 22 21 21 22 23 24 24 23 24 24 23 22 22 21 21 21 21 21 20 20 19 19 18 18 17 17 17 17 17 17 18 18 18 18 18 17 17 17 17 18 18 18 18 18 18 17 16 15 15 15 15 15 15 15 15 15 15 15 15 15 15 16 17 17 17 18 18
13 14 15 16 17 19 20 22 23 23 23 23 23 24 24 24 23 23 23 23 23 23 24 24 24 24 25 24 23 23 22 21 21 21 21 21 20 19 19 18 18 17 17 17 17 17 17 17 17 17 17 18 17 17 17 18 18 18 18 18 18 18 18 18 17 16 16 15 16 16 16 16 16 15 15 15 15 16 16 17 17 18 18 19 19
15 15 16 17 17 19 21 22 23 24 24 24 24 25 25 24 24 24 24 24 25 25 25 24 24 25 25 24 23 22 22 21 21 21 21 21 20 19 18 18 17 17 16 16 16 16 16 16 16 17 17 17 17 17 18 18 18 18 17 18 18 18 18 18 18 17 17 17 17 16 16 16 16 16 16 16 16 16 17 17 18 18 19 19 20
16 17 18 18 19 19 21 22 23 24 24 24 25 26 26 25 25 24 24 24 25 25 25 25 24 25 25 23 22 22 21 21 21 21 21 21 20 19 18 18 17 17 16 16 16 16 15 15 16 16 17 17 17 17 18 18 18 18 17 18 19 19 19 19 18 18 18 18 17 17 17 17 16 16 16 16 16 17 17 17 18 18 19 19 20
17 18 18 19 20 21 21 22 23 23 23 24 25 26 26 26 25 25 24 24 25 25 25 25 25 25 25 23 22 21 21 21 21 20 20 20 20 19 18 18 17 16 16 15 15 15 15 15 15 16 16 17 17 17 17 17 17 18 18 18 19 20 20 20 19 19 19 18 18 18 18 17 17 17 17 16 17 17 17 17 18 19 19 19 20
16 17 18 19 20 21 21 21 22 22 23 23 24 25 25 25 26 25 24 25 25 25 26 26 26 25 24 22 22 22 21 21 20 20 20 20 20 19 18 18 17 17 16 15 15 15 15 15 15 16 16 16 16 16 17 17 17 18 18 18 18 19 20 21 20 19 18 18 18 18 18 18 17 17 16 16 17 18 18 18 19 19 20 20 20
16 16 17 18 19 20 21 21 21 22 22 23 23 23 24 24 25 24 25 25 26 26 26 27 27 25 23 21 21 21 21 20 20 20 20 19 18 18 17 17 17 16 16 15 15 15 15 15 15 15 16 16 16 16 17 17 17 17 17 17 17 19 20 21 20 19 18 18 18 18 18 19 18 17 17 17 18 18 18 18 19 20 20 21 21
16 16 16 17 18 20 20 21 21 21 22 22 22 22 23 23 23 24 25 26 26 26 26 27 27 25 22 21 21 21 21 20 20 19 19 18 18 17 17 17 16 16 15 15 14 14 14 15 15 15 16 16 16 16 17 17 17 17 17 16 17 18 19 20 20 19 18 19 19 19 19 19 19 18 18 18 19 19 19 19 20 20 20 21 21
17 17 17 17 17 19 19 20 20 21 21 21 22 22 22 22 22 23 25 26 26 27 27 27 26 24 21 21 21 21 21 20 20 19 18 17 17 17 16 16 16 15 15 15 14 14 14 15 15 15 15 16 16 16 17 17 17 17 17 17 17 17 18 20 20 20 20 20 20 19 20 20 20 20 20 20 19 20 20 20 21 21 21 22 22
17 17 17 16 17 17 18 19 19 19 19 20 21 21 21 21 22 23 24 26 27 28 28 27 26 23 21 21 21 21 21 20 19 19 18 17 17 16 16 16 16 15 15 15 15 15 14 15 15 15 15 15 16 16 16 16 16 16 16 16 16 16 17 18 20 20 20 20 20 20 20 20 20 20 21 21 21 21 21 21 22 22 23 24 24
17 17 16 16 16 16 16 17 17 17 17 18 19 20 20 21 21 22 24 26 27 28 28 27 25 22 21 21 21 21 20 20 19 19 18 17 17 16 16 16 16 16 15 15 15 15 15 15 15 15 15 15 15 16 16 16 15 15 15 15 15 15 15 16 17 18 18 19 19 19 20 20 20 20 20 21 21 21 22 23 23 24 24 25 26
17 15 14 14 14 14 15 15 16 16 15 15 18 20 20 19 21 22 25 26 27 28 28 26 23 21 22 21 20 20 20 20 19 18 18 17 16 16 16 16 16 16 16 16 16 16 16 15 15 15 15 15 15 15 15 15 15 15 14 14 14 14 14 14 15 16 17 17 18 18 18 19 19 19 19 19 20 20 21 22 23 24 24 25 26
16 14 13 12 12 12 12 12 13 14 13 13 16 20 20 19 20 22 25 27 28 28 27 24 22 21 22 21 20 20 20 19 19 18 18 17 16 16 16 16 17 17 17 16 16 16 16 16 16 16 16 16 16 15 15 15 15 15 15 14 15 15 14 14 15 15 16 17 17 17 18 18 18 19 19 19 20 20 21 22 23 23 24 25 26
15 14 12 11 11 10 9 9 10 11 12 13 16 19 19 19 20 23 26 27 27 27 26 23 21 21 21 21 21 20 20 19 19 19 18 17 16 17 17 17 17 17 17 17 17 17 17 16 16 16 16 16 16 15 15 15 15 16 16 15 15 15 15 15 15 16 16 17 17 18 18 18 19 19 20 21 21 22 23 23 24 25 26 27 28
14 13 12 11 10 9 7 7 8 9 9 11 16 18 18 19 21 24 26 26 25 26 25 22 21 20 21 21 20 20 20 19 19 19 18 17 18 18 18 17 17 17 17 17 17 17 17 17 17 16 15 16 16 16 16 16 16 16 16 16 16 16 16 16 17 17 17 17 18 18 18 19 19 20 21 22 23 24 25 25 26 27 28 29 30
13 13 12 10 9 7 5 5 7 8 8 9 15 18 17 18 22 24 25 25 25 25 23 22 21 20 21 21 20 20 19 19 19 19 18 18 18 18 18 17 17 17 17 17 17 17 17 16 16 16 16 16 16 16 16 16 16 16 16 16 16 16 17 18 18 18 18 18 18 18 19 19 20 21 22 23 24 25 26 27 28 29 30 31 32
13 12 10 9 8 6 3 2 4 7 8 9 13 15 15 17 20 23 24 24 24 25 23 22 22 21 21 20 20 19 19 19 19 19 18 18 17 17 17 17 17 17 17 17 16 16 16 16 16 16 16 16 16 15 16 16 17 17 17 17 17 17 18 19 19 19 19 19 19 20 20 21 21 22 23 24 25 26 27 28 29 30 31 32 33
12 11 9 8 6 5 2 1 3 6 8 10 11 12 14 16 19 21 23 23 23 23 23 22 21 21 20 19 18 18 19 19 18 17 17 17 17 17 18 18 17 17 16 16 15 15 15 16 16 16 16 16 16 16 16 16 17 17 18 18 18 18 19 19 19 19 19 20 20 21 22 22 23 24 25 26 27 28 29 30 31 31 32 33 34
11 10 9 8 7 6 4 3 3 5 8 10 11 12 14 15 17 20 22 21 21 21 21 21 20 20 19 18 17 17 17 18 17 17 17 17 17 17 17 17 17 17 16 15 15 15 15 15 15 15 15 15 16 16 16 16 17 18 19 19 19 20 20 20 20 21 21 21 22 23 23 24 25 26 27 27 28 29 30 31 32 33 33 34 35
11 10 9 8 7 7 6 6 5 6 7 9 10 12 13 13 15 18 20 20 20 20 20 20 20 19 17 17 17 17 17 17 17 17 17 16 16 16 16 16 16 16 16 16 16 16 16 15 15 15 15 15 16 16 16 17 17 18 19 19 20 20 20 21 21 22 22 23 23 24 25 26 26 27 28 29 30 31 32 32 33 34 35 36 37
11 10 10 9 9 8 8 8 7 7 7 8 10 11 12 13 14 16 18 19 20 20 20 20 20 18 17 17 17 17 17 17 17 17 17 16 16 15 15 15 16 16 16 15 15 15 15 15 15 15 15 15 15 16 16 17 18 18 19 19 19 20 21 21 22 22 23 23 24 25 26 27 28 28 29 30 31 32 33 34 35 36 36 37 37
11 11 10 10 9 9 8 8 8 7 7 9 10 12 13 13 14 15 16 19 20 20 19 20 19 18 17 17 17 17 18 18 18 17 17 16 16 16 16 16 16 16 16 15 15 15 15 15 15 15 15 15 15 15 15 16 17 17 18 19 19 20 21 22 22 23 23 24 25 26 27 28 29 30 31 32 33 34 34 35 36 36 36 37 37
11 10 10 10 9 9 8 8 7 7 7 8 10 12 13 13 14 14 15 18 19 19 19 19 18 17 17 17 18 18 19 19 19 18 17 17 17 17 17 16 16 16 16 16 16 15 15 15 15 15 15 15 15 15 16 16 17 17 18 19 20 21 21 22 23 24 24 25 26 27 28 29 30 31 32 32 33 34 34 35 35 35 36 36 36
11 11 10 10 9 8 8 8 8 7 7 7 9 11 12 13 14 15 15 17 18 18 18 18 18 17 18 18 18 19 19 19 20 19 18 18 18 17 16 16 16 15 15 15 15 15 15 15 15 15 15 16 16 16 17 17 17 18 18 19 20 21 22 23 24 24 25 26 27 27 28 29 30 31 31 32 32 33 33 33 34 34 35 35 36
12 12 11 11 10 9 9 8 8 8 8 8 9 10 12 13 15 16 16 17 18 18 18 19 18 19 19 19 19 20 19 19 19 19 19 18 18 17 16 16 15 15 15 15 15 15 15 15 16 16 16 16 16 17 17 18 19 19 20 21 22 22 23 24 24 25 25 26 27 28 28 29 29 30 30 30 31 32 32 33 33 34 35 35 36
13 13 12 12 11 10 10 9 9 9 9 9 10 11 11 13 14 15 17 17 18 18 18 19 19 19 20 20 20 20 19 19 19 19 18 18 17 16 16 16 16 15 15 16 16 16 16 16 16 17 17 17 17 18 19 19 20 21 21 22 22 23 23 24 24 24 25 26 26 27 27 27 28 28 29 30 30 31 32 33 33 34 35 36 37
12 12 12 12 11 11 10 10 10 10 10 10 11 11 11 12 13 14 15 15 16 16 17 18 18 19 19 20 20 20 19 19 19 19 18 17 17 16 16 16 16 16 15 15 16 16 16 17 17 17 18 18 18 19 19 20 20 21 21 22 22 22 23 23 24 24 24 25 25 25 26 26 27 28 29 29 30 31 32 33 34 35 36 37 37
12 12 11 11 11 11 11 10 10 10 11 11 12 12 12 12 12 13 14 14 14 15 15 16 17 17 17 17 18 18 17 17 17 18 17 17 16 15 15 15 15 15 15 15 15 16 16 16 17 17 18 18 19 19 19 20 20 20 20 21 21 22 22 22 22 23 23 24 24 25 25 26 27 28 28 29 30 31 32 33 34 35 36 37 38
13 12 12 12 12 12 11 11 11 11 11 11 12 13 13 12 12 12 13 14 14 13 13 14 14 15 15 15 16 16 15 15 16 16 17 16 16 15 15 15 15 15 15 15 16 16 17 17 17 18 18 18 18 18 19 19 19 19 20 20 20 21 21 21 22 22 23 23 24 24 25 26 27 28 28 29 31 32 33 34 35 36 37 37 38
14 14 14 13 13 12 12 12 12 11 11 11 12 13 13 13 12 11 11 12 13 12 12 11 11 13 14 15 16 16 16 16 16 16 16 16 16 15 15 15 16 16 16 16 17 17 17 17 18 18 18 18 18 18 18 18 18 19 19 19 20 20 21 21 22 22 23 23 24 25 25 26 27 28 29 30 31 32 34 35 35 36 37 37 37
15 15 15 15 14 13 13 13 13 12 12 12 12 12 12 12 12 12 11 12 12 13 13 12 12 13 15 15 16 17 17 17 16 16 16 16 16 16 16 16 17 17 17 17 17 17 17 17 17 17 17 17 17 18 18 18 18 19 19 19 20 20 21 21 22 22 23 24 24 25 26 27 28 29 30 31 32 33 34 35 35 36 36 36 36
16 16 15 15 15 15 14 14 14 13 13 13 13 13 13 13 13 13 13 13 13 13 14 14 14 14 15 15 15 16 16 16 16 16 16 17 17 17 17 17 17 17 17 17 17 17 17 17 17 17 17 18 18 18 18 18 19 19 19 20 20 21 21 22 22 23 23 24 25 26 27 28 29 30 31 32 32 33 34 34 35 35 35 35 36
16 16 16 15 16 16 16 15 15 15 15 15 14 14 14 14 14 14 13 13 13 13 14 14 14 14 14 14 15 15 16 16 16 16 17 18 18 18 18 18 18 18 18 18 18 17 17 17 17 18 18 18 18 18 18 19 19 19 19 20 20 21 21 22 22 23 24 25 26 27 28 28 29 30 31 31 32 33 33 33 34 34 35 35 35
16 16 16 15 15 15 15 16 16 16 15 16 16 16 16 15 15 15 14 14 14 13 13 14 14 14 14 14 15 15 16 17 17 17 18 19 19 20 19 19 19 19 19 19 18 18 18 18 18 17 18 18 18 18 18 18 19 19 19 20 20 21 22 22 23 24 25 26 26 27 28 29 29 30 30 31 31 32 32 33 33 34 34 34 34
16 16 16 16 15 15 14 15 15 15 16 16 17 17 17 17 17 16 16 15 15 15 15 15 15 15 15 15 16 16 16 17 17 18 18 19 20 20 20 20 20 19 19 19 19 18 18 18 17 17 17 17 18 18 18 18 19 19 20 20 21 22 22 23 24 24 25 26 26 27 28 28 29 30 30 31 31 31 32 32 32 32 32 32 31
16 16 16 16 16 16 15 15 15 15 15 16 17 17 18 18 18 18 17 17 16 16 16 16 17 17 17 17 17 17 18 18 18 18 19 20 20 20 20 20 19 19 19 18 18 17 17 17 17 17 17 17 17 17 18 19 19 20 20 21 21 22 22 23 24 24 25 26 26 27 28 28 29 29 30 30 30 30 31 31 30 30 30 29 28
17 17 17 17 17 17 17 17 16 16 15 16 16 17 18 18 19 19 19 18 18 18 18 18 18 18 18 18 18 19 19 19 19 19 19 20 20 20 19 19 18 18 18 17 17 17 17 17 17 17 17 17 17 18 18 19 20 20 21 21 22 22 22 23 24 24 25 26 26 27 27 28 28 29 29 29 29 29 29 28 28 27 26 26 25
16 17 17 17 17 18 18 18 18 17 17 17 17 18 19 19 19 20 19 19 19 19 19 19 19 19 19 19 19 19 19 19 19 19 19 19 18 18 18 18 18 18 18 18 18 17 17 17 17 17 17 17 18 18 19 19 19 20 21 21 22 22 23 23 24 25 25 26 26 26 27 27 27 28 28 27 27 27 27 26 25 24 23 22 22
15 16 17 17 17 17 18 18 18 18 18 18 18 19 20 20 20 20 20 20 20 20 20 20 20 19 19 18 19 19 19 19 19 18 18 18 18 18 18 18 18 18 18 18 18 17 17 17 17 17 17 17 18 18 19 19 19 20 21 21 22 23 23 24 24 25 25 26 26 26 26 26 27 27 26 26 26 25 25 24 23 22 21 20 19
14 15 16 16 16 17 17 18 18 19 19 19 19 20 20 21 21 21 21 21 21 20 20 20 20 19 19 18 18 18 19 18 18 18 18 18 18 18 18 18 18 18 18 17 17 17 17 17 17 17 17 17 18 18 19 19 20 21 21 22 22 23 23 24 25 25 25 25 25 25 25 26 25 25 25 24 24 23 22 21 20 19 19 19 18
12 13 14 15 15 15 16 17 17 18 18 18 19 19 20 21 22 22 22 22 21 21 21 20 20 19 19 19 18 18 19 19 19 19 19 18 18 18 18 18 18 17 17 16 16 16 16 16 17 17 17 17 18 18 19 20 20 21 21 22 22 23 23 24 24 24 24 25 25 25 25 24 24 23 23 22 21 20 20 19 18 18 18 18 18
12 12 12 13 13 14 14 15 16 17 17 17 17 18 18 19 21 22 22 22 22 22 21 21 21 20 20 20 19 19 20 20 20 20 19 19 19 19 18 18 17 17 16 16 16 16 16 16 16 17 17 17 18 18 19 19 20 20 21 21 22 22 23 23 23 23 24 24 24 24 23 23 22 21 20 19 19 18 18 17 17 17 17 17 17
12 12 12 12 12 12 13 14 15 16 17 17 17 17 17 18 19 20 21 22 22 22 22 22 21 21 20 20 20 20 20 20 20 20 20 20 20 19 19 18 18 17 17 16 16 16 16 16 16 16 16 17 17 18 18 19 20 20 21 21 21 22 22 22 22 22 22 22 22 22 21 20 19 18 18 18 17 17 17 17 17 16 16 16 16
12 13 12 12 12 12 13 13 14 15 16 17 17 18 18 18 18 19 21 21 21 22 22 22 22 21 21 20 20 20 20 20 20 20 20 20 19 19 18 18 17 17 16 16 16 16 15 15 15 15 15 16 16 17 17 18 19 19 20 20 20 20 21 21 21 21 21 21 20 19 19 18 17 17 17 17 16 16 16 16 16 16 15 15 16
13 13 13 13 13 13 13 13 14 15 16 16 17 18 18 18 18 19 19 21 21 21 22 22 22 22 21 21 20 20 20 20 19 19 19 19 19 18 18 17 17 16 16 15 15 15 14 14 14 14 14 14 15 15 16 16 17 17 18 18 18 18 19 19 19 19 19 18 18 17 17 16 16 16 16 16 16 16 16 16 15 15 15 15 15
14 13 12 13 13 13 13 14 14 15 15 16 17 17 18 18 18 18 19 20 20 21 21 22 22 22 21 21 20 20 20 20 19 18 18 18 18 17 17 16 16 15 15 14 14 13 13 13 13 13 13 13 13 13 14 14 15 15 15 16 16 16 16 16 17 16 16 16 16 16 16 15 15 16 16 16 16 16 15 15 15 14 14 14 14
14 13 13 13 13 13 14 14 15 15 15 16 16 17 17 17 17 18 18 19 19 20 20 21 21 21 21 21 21 20 20 19 19 18 18 17 17 17 16 16 15 15 14 14 13 13 12 12 12 12 12 12 12 12 12 13 13 13 14 14 14 14 14 14 14 14 14 14 14 15 15 15 15 15 15 15 15 15 14 14 14 14 13 13 13
15 14 14 13 13 14 14 15 15 15 16 16 16 16 16 16 16 16 17 17 18 19 20 20 20 20 20 20 21 20 20 19 18 18 17 16 16 16 15 15 15 14 14 13 13 12 12 11 11 11 11 11 11 11 11 11 12 12 12 13 13 13 13 13 13 13 13 13 13 14 14 14 14 14 14 14 14 14 14 13 13 13 12 12 12
15 14 14 14 14 14 14 14 14 15 15 16 16 16 16 16 15 16 16 16 16 17 18 18 19 19 19 19 20 20 19 19 18 18 17 16 15 15 15 14 14 14 13 13 12 12 11 11 11 10 10 10 10 10 10 10 11 11 12 12 12 13 12 12 13 13 13 13 13 13 13 13 13 13 13 13 13 13 13 13 13 12 12 11 11
Wind_Direction
268 257 247 241 240 240 239 238 240 242 242 242 244 244 244 245 243 240 236 234 234 233 232 229 226 223 219 215 212 213 216 217 217 218 218 219 221 222 223 223 225 227 228 230 231 233 234 235 236 235 236 237 238 238 238 237 238 237 236 235 235 238 240 241 246 253 252 247 244 242 241 241 242 242 242 243 244 245 245 243 240 239 239 239 240
271 263 253 247 244 243 242 243 244 244 242 243 244 244 244 244 241 239 236 234 233 232 231 227 223 219 216 213 213 215 218 219 219 219 219 220 221 223 223 224 226 228 229 231 232 234 235 236 237 237 237 238 238 238 238 238 239 238 237 236 236 238 239 240 244 250 251 246 241 241 240 241 243 242 243 245 246 246 247 245 242 241 241 242 244
271 264 258 252 248 246 246 246 245 245 245 244 243 243 243 242 240 238 235 232 232 232 229 225 221 218 214 213 215 217 219 219 219 219 219 220 221 222 223 224 226 228 229 232 233 235 236 237 237 237 237 237 238 238 238 239 239 239 238 236 236 237 238 239 243 247 247 244 241 241 241 241 243 244 245 248 248 248 248 246 245 244 244 245 247
272 266 262 259 254 249 248 247 246 245 246 246 243 242 241 241 239 237 234 232 232 231 226 222 221 217 213 213 215 217 218 218 219 219 219 220 221 221 222 223 225 227 230 232 234 235 237 237 237 237 236 236 237 238 238 239 240 240 238 236 236 237 239 240 242 244 245 245 244 244 243 243 245 247 248 250 251 250 249 248 248 248 249 249 250
272 269 266 264 260 254 251 249 246 244 244 244 243 241 241 240 238 236 233 232 231 229 223 221 220 215 211 213 215 215 216 217 218 219 219 220 220 220 221 222 224 228 231 232 234 236 237 238 238 237 237 237 238 238 238 238 240 240 238 236 236 237 238 240 241 243 244 247 247 246 245 245 247 249 251 252 253 252 250 249 250 251 252 253 254
274 270 267 264 262 259 255 252 249 247 247 245 243 241 240 239 237 234 232 229 228 224 220 219 216 211 210 213 214 214 215 216 218 218 218 219 219 220 221 222 224 227 230 232 234 236 237 238 238 238 238 239 239 238 237 238 239 239 238 237 238 238 238 239 240 241 244 248 248 246 246 247 248 251 253 254 254 253 252 252 253 253 254 256 258
279 273 269 265 262 261 259 255 252 252 251 248 246 242 240 237 235 232 230 227 224 219 216 214 211 208 210 213 214 214 215 215 216 217 218 218 219 220 222 222 224 227 230 232 233 235 237 238 239 239 239 239 239 238 238 239 239 238 239 240 240 240 238 237 238 241 245 247 246 246 248 249 250 254 255 256 256 255 254 254 255 256 257 258 261
286 277 272 268 264 262 260 257 254 253 252 250 247 243 240 237 233 230 227 223 220 217 214 211 207 207 210 214 215 215 213 213 215 216 216 217 218 220 221 222 224 228 230 232 234 235 237 240 241 241 239 239 239 239 240 240 239 240 242 243 243 241 237 234 237 243 246 245 245 248 250 252 253 255 258 258 257 256 255 255 257 259 260 261 263
294 286 279 272 265 261 259 257 255 254 252 250 246 242 240 235 230 227 222 218 216 214 211 206 203 205 210 214 214 212 211 213 214 215 214 215 216 218 219 221 224 227 230 233 235 236 238 241 243 241 240 239 240 241 241 241 241 243 243 244 243 241 236 234 236 242 244 244 246 249 252 253 254 255 257 257 256 256 256 257 259 261 262 263 264
302 296 288 279 269 262 257 255 255 254 252 249 245 240 236 231 225 221 217 213 212 209 206 202 202 205 210 212 211 209 210 212 213 213 213 214 215 217 218 222 225 227 230 232 233 236 239 242 243 241 240 240 241 242 241 241 244 246 245 245 244 241 237 234 234 239 244 246 248 250 250 252 253 254 256 258 258 257 258 258 260 263 265 266 268
307 303 297 288 276 265 258 255 254 253 251 248 242 237 232 225 220 217 213 210 208 205 202 200 200 204 209 210 208 207 208 209 210 211 213 214 215 217 220 223 225 227 229 230 233 237 240 242 244 243 242 242 243 243 243 243 246 247 247 247 246 242 239 236 236 242 247 248 248 249 249 251 254 255 257 260 261 261 261 262 263 266 268 269 271
312 308 302 294 283 272 262 256 253 251 250 246 239 233 225 218 215 214 209 206 204 201 200 199 200 205 210 208 205 204 205 207 209 212 214 216 217 220 222 223 224 226 229 230 234 238 241 243 245 245 246 247 246 245 244 245 246 247 246 245 244 241 241 241 241 245 247 248 249 250 251 254 257 258 260 262 263 264 265 265 266 268 270 271 272
315 311 306 299 289 277 265 257 252 250 249 244 233 224 216 212 212 208 202 200 200 198 197 198 200 206 207 204 202 203 205 209 212 214 216 218 219 222 224 225 226 227 229 232 236 239 242 244 245 247 248 249 248 245 244 244 244 244 243 242 240 241 243 245 244 246 248 250 251 252 255 258 260 261 262 262 264 265 267 268 270 270 271 272 273
317 315 311 305 295 282 267 256 249 246 245 239 225 214 208 207 209 205 199 198 197 195 195 197 202 206 206 205 204 205 209 213 214 215 217 219 221 223 226 228 229 230 232 235 238 241 243 244 246 247 247 247 246 243 240 241 241 240 240 241 241 242 244 245 247 249 251 253 254 255 257 259 260 262 264 264 265 267 268 270 271 272 273 274 275
319 317 316 312 305 291 270 252 243 239 238 232 218 208 205 207 207 203 198 196 196 195 195 198 205 208 208 207 206 208 213 216 215 216 219 221 224 227 229 231 232 234 236 239 241 242 243 245 247 248 247 245 243 240 238 239 238 238 240 242 242 243 244 246 249 252 254 256 257 258 259 261 263 264 267 268 269 271 272 272 273 274 276 277 278
323 321 319 316 313 302 274 250 238 233 232 226 214 207 207 208 204 198 194 193 195 195 196 201 208 210 208 208 208 212 217 219 218 218 221 223 227 230 232 233 234 236 238 240 242 244 244 245 246 246 245 243 241 240 240 240 240 240 242 243 243 243 245 249 252 255 258 260 261 262 263 266 267 269 271 272 274 275 275 276 277 278 279 280 280
328 327 325 321 320 313 286 257 236 227 228 220 209 205 204 202 198 194 192 193 194 195 198 204 209 209 208 210 212 215 220 222 221 221 223 226 229 231 232 233 235 237 239 241 243 244 244 244 243 243 243 242 242 242 242 242 243 243 243 244 244 243 246 251 255 259 261 263 264 265 267 268 270 272 274 275 276 277 277 278 279 280 281 282 282
329 330 329 326 326 320 295 260 232 224 224 208 198 197 196 196 196 195 194 195 197 199 203 208 210 211 211 211 214 217 220 221 221 222 225 227 229 231 232 234 235 237 239 242 243 242 241 241 241 241 241 242 242 243 243 243 243 244 244 245 246 247 251 255 258 261 263 265 266 268 269 271 273 275 277 279 280 280 280 280 281 282 283 283 283
324 325 325 326 329 329 311 261 225 217 211 198 191 193 197 198 197 196 197 199 202 205 210 212 211 212 212 211 213 216 218 219 221 223 225 227 229 232 234 235 236 237 238 239 239 239 238 238 238 238 239 240 242 244 246 245 244 244 246 247 249 252 255 258 260 262 264 266 268 270 271 274 276 278 280 281 282 283 283 283 283 284 284 285 285
319 319 317 315 320 328 325 259 215 211 207 203 200 202 205 205 203 201 203 207 209 210 212 211 209 209 209 210 213 215 216 218 221 223 225 229 233 235 234 234 233 233 234 234 234 236 236 236 236 237 237 240 243 247 249 249 248 248 249 251 252 254 256 258 261 263 265 267 269 270 272 275 277 279 281 282 284 285 285 285 286 285 286 286 286
312 315 312 308 306 309 304 274 248 237 229 223 218 214 212 211 210 209 210 211 210 209 207 205 204 205 208 212 216 217 218 219 222 225 230 233 234 231 229 229 229 229 230 231 232 234 235 235 236 237 239 242 246 249 251 252 252 252 254 255 256 256 257 260 263 265 267 269 270 272 274 276 278 280 281 283 284 286 287 287 288 287 287 287 288
304 306 306 304 300 296 291 281 268 253 240 233 225 218 216 214 212 210 208 207 206 205 204 203 205 207 212 216 219 220 221 222 225 229 232 232 228 225 225 227 229 230 230 231 232 233 234 235 237 239 242 246 250 253 254 254 255 255 255 256 257 258 260 262 265 267 269 271 272 274 276 278 279 281 282 284 285 287 288 289 290 290 289 289 289
296 296 296 296 294 289 283 279 273 258 244 235 226 221 222 221 214 209 207 207 207 208 208 208 209 211 215 219 222 224 225 226 229 231 230 226 224 225 228 230 232 233 233 233 233 234 235 237 240 243 247 251 254 255 256 256 257 257 257 258 259 261 263 265 267 269 271 272 274 276 278 280 281 283 284 285 287 288 290 290 291 291 290 290 290
292 292 290 289 288 284 278 275 271 262 249 239 231 227 226 224 219 215 212 210 210 211 212 213 213 215 219 223 226 228 228 229 231 230 226 224 226 229 231 232 233 234 234 235 236 237 238 241 244 247 251 253 255 257 258 259 259 260 261 262 263 264 266 267 269 271 273 275 277 279 280 282 283 284 286 287 288 289 290 291 291 292 291 291 291
290 291 291 289 285 282 278 274 269 262 252 243 234 229 224 222 222 221 215 209 209 211 213 215 218 221 224 226 228 231 232 232 231 228 225 225 227 228 229 231 232 233 234 236 237 238 240 242 245 249 252 254 256 258 260 261 262 263 265 265 266 267 268 270 272 274 276 278 279 281 282 283 284 286 287 288 289 290 291 292 292 293 293 293 292
287 288 289 288 284 281 278 275 271 265 257 249 239 231 227 226 226 224 217 212 211 214 218 222 225 229 231 232 234 236 235 233 230 227 226 226 226 226 227 228 228 230 232 234 235 238 240 243 247 250 253 256 258 259 261 263 265 267 268 269 269 270 272 274 275 277 279 280 281 283 284 285 286 287 289 290 291 292 293 293 294 294 294 294 294
282 282 283 283 281 278 275 272 271 267 263 259 251 240 233 231 230 227 224 222 224 226 229 231 234 236 237 238 239 238 235 231 226 224 224 224 223 224 226 227 228 230 232 233 236 240 243 247 250 253 255 258 261 262 264 266 267 269 271 272 273 274 276 277 278 279 281 282 283 285 286 287 288 289 291 292 293 294 295 295 295 295 295 295 295
278 277 276 276 276 274 272 269 265 262 259 258 253 245 236 231 228 227 228 229 229 230 232 234 237 238 238 238 238 235 231 226 222 219 220 220 220 221 224 226 228 231 234 236 240 244 247 251 254 257 259 262 264 266 268 269 271 272 273 274 275 276 277 279 280 282 283 284 285 286 287 289 290 291 293 294 295 296 296 296 296 296 296 297 297
280 277 274 272 271 271 270 268 265 261 257 253 250 246 240 234 230 229 231 231 229 229 231 233 235 236 237 236 233 228 224 222 220 218 218 218 219 222 224 226 229 233 237 240 244 248 252 255 258 261 264 266 268 269 271 272 272 273 274 275 276 277 279 280 282 283 284 285 287 288 290 291 292 294 295 295 296 296 297 297 297 297 298 298 299
280 279 275 273 272 270 269 268 267 263 258 253 250 247 245 243 239 237 238 237 235 234 234 234 234 235 233 228 220 214 212 214 217 218 219 221 223 226 228 230 233 236 239 244 249 253 256 259 262 265 266 268 269 269 270 271 272 273 274 276 277 279 280 281 283 284 285 287 289 290 292 293 294 295 296 297 297 298 298 299 299 299 300 300 300
277 276 275 274 273 271 269 266 263 260 256 251 247 245 245 246 246 245 245 243 241 239 238 238 236 231 221 212 209 210 213 218 221 222 223 224 226 228 231 234 238 242 246 251 256 259 261 263 265 266 267 268 268 269 270 271 272 273 275 277 278 280 281 283 285 286 288 290 291 292 293 294 295 296 297 298 298 299 300 300 300 301 301 301 302
275 273 272 271 270 269 267 264 261 257 254 249 245 242 242 244 245 246 245 242 239 237 236 234 228 221 215 215 217 221 224 228 230 229 227 227 229 232 235 239 243 247 253 258 260 262 264 265 266 266 267 268 268 269 271 272 274 275 276 278 280 282 284 286 287 289 290 291 292 293 294 295 296 297 298 299 300 300 301 301 301 302 302 303 304
274 272 269 268 267 267 265 263 260 257 253 249 246 243 242 241 241 240 239 237 235 234 234 232 226 222 223 226 227 227 228 231 233 233 232 232 234 237 240 243 247 252 256 260 261 263 265 266 266 266 267 268 269 271 273 274 276 277 279 280 283 285 287 288 289 290 291 292 293 294 295 296 297 298 299 300 301 302 303 303 303 304 304 305 306
272 269 267 265 263 262 262 261 259 257 253 250 246 243 242 240 239 237 236 234 232 231 232 234 234 232 231 231 232 232 234 236 237 236 236 236 237 240 243 247 252 256 259 262 263 265 265 265 265 266 267 269 270 271 274 275 277 279 281 283 285 286 287 288 289 290 291 292 294 295 297 298 299 300 301 302 303 303 304 305 305 306 307 307 308
272 269 266 265 262 259 258 257 255 254 253 251 247 243 242 241 240 239 238 236 234 234 234 236 238 239 238 238 237 237 238 240 242 242 242 241 242 245 249 252 256 259 261 264 266 266 266 265 266 267 268 269 271 272 274 276 278 280 282 283 285 286 287 288 289 290 292 293 295 297 298 299 300 301 302 304 305 305 306 307 307 308 308 308 309
270 268 266 266 265 261 258 256 254 252 251 249 245 243 241 241 241 243 243 241 238 237 238 239 242 245 245 245 243 242 242 244 245 246 246 247 248 250 253 255 257 259 261 263 265 266 266 266 267 268 269 271 272 274 275 276 278 279 281 283 284 285 286 288 289 291 293 295 296 298 299 300 301 302 304 305 306 307 308 308 309 309 310 310 310
265 264 264 264 263 262 261 259 257 255 253 249 246 243 242 242 243 245 247 246 244 242 241 243 245 247 248 249 249 247 246 247 247 248 249 250 251 253 255 256 257 258 260 261 263 264 266 267 268 269 270 271 272 273 274 276 278 279 281 283 284 285 287 289 291 292 294 296 297 299 300 301 302 303 305 306 307 308 309 309 310 311 311 311 311
262 262 262 260 260 260 260 260 259 258 257 254 250 246 244 243 244 246 248 249 248 248 247 247 248 248 249 249 250 250 249 249 251 251 251 252 252 253 254 255 257 258 259 260 262 264 266 267 268 269 269 270 271 273 275 276 278 280 282 283 284 286 288 290 292 294 295 297 298 300 301 302 304 305 306 307 308 309 310 311 311 312 312 313 313
263 263 264 262 260 259 259 259 258 257 256 256 254 250 247 245 245 246 247 249 249 250 250 249 249 249 248 248 250 251 252 252 253 252 252 251 252 252 253 255 256 256 257 259 261 263 265 265 266 267 268 270 272 274 276 278 280 281 283 284 286 287 290 292 294 295 297 299 300 301 302 304 305 306 307 308 309 310 311 312 312 312 313 314 315
266 265 266 265 262 260 259 259 259 258 257 257 257 254 251 249 248 247 248 249 250 250 250 250 249 249 248 249 251 253 254 255 253 251 251 251 252 253 254 254 255 256 257 259 261 262 263 264 265 267 269 271 273 275 278 280 281 283 284 286 287 289 291 293 295 297 299 300 301 303 304 305 306 307 307 309 310 311 312 312 313 313 314 316 317
270 268 267 266 264 261 260 260 260 260 261 261 261 258 255 252 251 250 250 251 251 252 251 250 249 249 250 251 253 255 256 256 253 251 251 252 253 254 255 256 257 258 259 260 260 261 261 262 265 268 271 273 275 277 279 281 283 285 286 288 289 290 293 295 297 298 300 301 302 303 304 305 306 307 308 310 311 311 311 311 312 313 315 317 319
278 273 271 269 265 262 260 260 260 261 263 264 264 262 259 256 254 253 252 252 252 251 250 249 249 250 251 253 254 256 257 255 252 251 252 253 254 255 256 257 257 258 258 258 258 258 260 263 266 269 272 275 277 279 281 284 286 287 289 290 291 292 294 296 298 299 300 302 302 303 303 304 306 308 309 310 310 311 311 311 312 314 316 318 320
289 282 278 274 269 264 262 262 261 261 263 264 265 264 262 259 257 255 253 253 252 250 248 248 249 250 251 253 254 255 256 254 251 250 251 252 252 253 254 254 254 254 254 254 255 257 260 264 267 271 274 276 279 282 285 286 288 290 291 292 292 294 295 297 298 299 300 301 302 302 303 305 306 307 308 309 310 311 311 312 313 315 317 319 320
297 292 287 283 276 270 267 265 264 263 263 265 265 265 263 260 257 255 253 252 251 249 248 249 249 250 251 253 254 255 254 253 250 249 249 249 250 250 251 251 251 251 252 254 256 260 263 266 270 273 276 279 282 285 287 289 290 292 293 293 294 295 296 297 298 299 299 301 302 303 304 305 305 306 307 308 309 312 313 314 314 315 317 318 320
302 296 291 288 284 279 274 271 270 269 268 268 268 267 266 263 259 254 251 250 249 248 248 249 250 250 250 252 254 253 253 252 250 249 249 249 250 250 249 249 249 251 253 256 258 261 264 268 271 274 278 281 284 287 290 292 294 295 295 296 296 296 297 297 298 299 300 301 302 303 304 304 303 304 305 307 308 311 313 314 315 316 317 319 320
308 299 291 287 286 285 281 277 275 274 273 271 270 269 268 266 262 258 253 251 249 248 248 248 249 249 249 251 252 252 251 250 249 249 249 249 249 248 247 247 248 250 253 255 258 261 265 268 272 276 279 283 287 291 294 296 297 298 298 299 299 298 299 299 300 300 301 301 302 302 302 302 302 302 304 305 307 309 311 313 314 316 318 320 321
313 304 294 287 287 287 286 282 279 277 275 274 273 271 270 268 265 262 258 254 252 251 250 249 249 249 249 250 250 250 249 248 249 249 249 248 247 246 245 246 248 250 252 255 258 262 266 270 273 277 281 286 290 294 297 299 301 302 303 303 303 302 302 302 302 302 302 302 302 301 301 302 302 302 303 305 306 307 309 311 312 314 317 320 321
317 309 299 292 289 287 287 287 284 280 278 276 275 274 273 270 268 265 261 258 255 253 251 251 250 250 249 249 248 248 247 247 248 249 248 246 245 245 245 246 248 250 252 255 259 262 266 270 274 278 282 287 291 295 299 302 304 306 307 308 309 308 307 306 306 305 304 303 302 302 302 302 303 304 305 305 306 306 308 309 311 313 315 318 320
323 315 307 300 293 288 286 287 286 284 281 278 276 276 276 274 271 268 265 261 257 254 252 252 252 251 249 247 246 245 245 246 246 246 245 244 243 243 243 245 246 248 250 253 257 261 265 268 272 277 282 286 291 295 299 303 307 310 313 314 315 315 313 312 311 310 308 306 305 305 304 303 304 306 307 307 307 307 308 309 310 312 313 315 317
327 321 315 309 301 294 290 289 288 287 285 281 277 275 275 274 273 271 269 265 261 257 254 253 252 251 249 246 244 243 243 243 243 242 242 241 241 240 241 242 244 246 248 251 254 258 262 266 270 275 280 285 290 295 300 305 309 313 316 318 320 320 319 316 315 314 312 310 309 308 307 306 307 309 310 310 309 309 310 310 310 311 311 312 313
328 325 322 316 310 303 298 293 290 289 287 284 280 276 272 271 271 270 269 267 265 262 257 253 251 250 248 245 243 242 240 239 239 238 237 237 237 237 238 239 242 244 246 248 252 255 259 263 267 272 278 284 290 295 300 305 310 314 317 318 319 320 319 318 317 317 315 313 312 311 310 310 311 311 311 311 311 310 310 310 309 309 310 310 310